Weather in Callao Salvaje

Spain     28°07′45″N   16°46′37″W
temp.,
°C
wind,
m/s
gust,
m/s
humid.,
%
clouds,
%
prec.,
mm/h
press.,
hPa
HPBL,
m
7 may, fri
fri701:00+13e128124 0.0 1021184
04:00+13e228311 0.0 102094
07:00+11e128719 0.0 102082
10:00+15se12620 0.0 1021411
13:00+18w22560 0.0 1020642
16:00+19nw225813 0.0 1019765
19:00+17nw116420 0.0 1019604
22:00+14n228536 0.0 1020202
8 may, sat
sat801:00+12nne228834 0.0 1020168
04:00+11nne23879 0.0 1019130
07:00+11ne12841 0.0 101965
10:00+15nnw12631 0.0 1020547
13:00+18nw32533 0.0 1019799
16:00+18nnw43563 0.0 1018801
19:00+16n336347 0.0 1018531
22:00+13n12650 0.0 1019253
9 may, sun
sun901:00+14nne22391 0.0 102069
04:00+13nne33340 0.0 101860
07:00+13nne33590 0.0 101862
10:00+17n235454 0.0 1018454
13:00+20nnw335437 0.0 1018855
16:00+19nnw556216 0.0 1018766
19:00+17n337344 0.0 1018510
22:00+15ne228530 0.0 1019246
10 may, mon
mon1001:00+14n129117 0.1 1019136
04:00+13n129061 0.0 1018114
07:00+12nne227879 0.1 101961
10:00+16n125816 0.0 1020543
13:00+17sw126729 0.0 1020698
16:00+17nnw126951 0.0 1020685
19:00+17nne236018 0.1 1019629
22:00+13ene348118 0.0 1022216
11 may, tue
tue1101:00+12ene448142 0.0 1023169
04:00+12e347813 0.0 1022126
07:00+11ene447824 0.0 1022158
10:00+15e346526 0.0 1023528
13:00+18ene13513 0.0 1023767
16:00+18se135836 0.0 1022752
19:00+17ene23629 0.0 1022524
22:00+15e346743 0.0 1023173